,,PA_Meas_PMT16A,,PR_Meas_QMR101_102,,RH_Meas_QMH101,,SR_Meas_QMS101,,TA_Meas_QMH101,,GenWind,,GenWind,
time,status,PA,status,PR,status,RH,status,SR,status,TA,status,DirAvg,status,SpdAvg,
2011-04-17, 00:00:04,VALID,918.587,VALID,0,VALID,95.6891,VALID,0,VALID,20.9885,VALID,360,VALID,0.7,
2011-04-17, 00:01:04,VALID,918.561,VALID,0,VALID,95.6739,VALID,0,VALID,21.008,VALID,360,VALID,0.922266,
2011-04-17, 00:02:04,VALID,918.565,VALID,0,VALID,95.6739,VALID,0,VALID,21.0064,VALID,360,VALID,0.825,
2011-04-17, 00:03:04,VALID,918.567,VALID,0,VALID,95.7196,VALID,0,VALID,21.047,VALID,360,VALID,0.612109,
2011-04-17, 00:04:04,VALID,918.57,VALID,0,VALID,95.6053,VALID,0,VALID,21.0275,VALID,360,VALID,0.379297,
2011-04-17, 00:05:04,VALID,918.571,VALID,0,VALID,95.6053,VALID,0,VALID,21.008,VALID,360,VALID,0.710547,
2011-04-17, 00:06:04,VALID,918.562,VALID,0,VALID,95.6357,VALID,0,VALID,21.008,VALID,360,VALID,0.753906,
2011-04-17, 00:07:04,VALID,918.576,VALID,0,VALID,95.6129,VALID,0,VALID,21.008,VALID,360,VALID,0.766016,
2011-04-17, 00:08:04,VALID,918.531,VALID,0,VALID,95.6281,VALID,0,VALID,20.9885,VALID,360,VALID,0.547656,
2011-04-17, 00:09:04,VALID,918.531,VALID,0,VALID,95.6434,VALID,0,VALID,20.9885,VALID,360,VALID,0.491016,
2011-04-17, 00:10:04,VALID,918.53,VALID,0,VALID,95.6815,VALID,0,VALID,20.9885,VALID,360,VALID,0.265625,
2011-04-17, 00:11:04,VALID,918.514,VALID,0,VALID,95.6891,VALID,0,VALID,20.969,VALID,360,VALID,0.419922,
2011-04-17, 00:12:04,VALID,918.476,VALID,0,VALID,95.6815,VALID,0,VALID,20.969,VALID,360,VALID,0.503906,
2011-04-17, 00:13:04,VALID,918.468,VALID,0,VALID,95.6281,VALID,0,VALID,20.9901,VALID,360,VALID,0.433984,
2011-04-17, 00:14:04,VALID,918.459,VALID,0,VALID,95.6281,VALID,0,VALID,20.9706,VALID,360,VALID,0.410156,
2011-04-17, 00:15:04,VALID,918.43,VALID,0,VALID,95.5519,VALID,0.107441,VALID,20.9706,VALID,360,VALID,0.354297,
2011-04-17, 00:16:04,VALID,918.418,VALID,0,VALID,95.5595,VALID,0,VALID,20.93,VALID,360,VALID,0.291016,
2011-04-17, 00:17:04,VALID,918.385,VALID,0,VALID,95.5138,VALID,0.107441,VALID,20.9105,VALID,360,VALID,0.299609,
2011-04-17, 00:18:04,VALID,918.338,VALID,0,VALID,95.4909,VALID,0,VALID,20.9105,VALID,360,VALID,0.523828,
2011-04-17, 00:19:04,VALID,918.368,VALID,0,VALID,95.4528,VALID,0.107441,VALID,20.8699,VALID,360,VALID,0.543359,
2011-04-17, 00:20:04,VALID,918.3,VALID,0,VALID,95.4452,VALID,0.107441,VALID,20.8925,VALID,360,VALID,0.528125,
2011-04-17, 00:21:04,VALID,918.247,VALID,0,VALID,95.468,VALID,0,VALID,20.8519,VALID,360,VALID,0.469531,
2011-04-17, 00:22:04,VALID,918.238,VALID,0,VALID,95.5519,VALID,0,VALID,20.8519,VALID,360,VALID,0.305469,
2011-04-17, 00:23:04,VALID,918.213,VALID,0,VALID,95.5519,VALID,0,VALID,20.8519,VALID,360,VALID,0,
2011-04-17, 00:24:04,VALID,918.206,VALID,0,VALID,95.6434,VALID,0,VALID,20.8519,VALID,360,VALID,0,
2011-04-17, 00:25:04,VALID,918.189,VALID,0,VALID,95.6205,VALID,0,VALID,20.8519,VALID,360,VALID,0.283984,
2011-04-17, 00:26:04,VALID,918.179,VALID,0,VALID,95.6357,VALID,0,VALID,20.8324,VALID,360,VALID,0.121094,
2011-04-17, 00:27:04,VALID,918.202,VALID,0,VALID,95.6815,VALID,0,VALID,20.8519,VALID,360,VALID,0.071875,
2011-04-17, 00:28:04,VALID,918.194,VALID,0,VALID,95.6586,VALID,0,VALID,20.873,VALID,360,VALID,0.0414063,
2011-04-17, 00:29:04,VALID,918.188,VALID,0,VALID,95.6586,VALID,0,VALID,20.8714,VALID,360,VALID,0,
2011-04-17, 00:30:04,VALID,918.19,VALID,0,VALID,95.6357,VALID,0,VALID,20.8519,VALID,360,VALID,0,
2011-04-17, 00:31:04,VALID,918.176,VALID,0,VALID,95.6053,VALID,0,VALID,20.891,VALID,360,VALID,0,
2011-04-17, 00:32:04,VALID,918.168,VALID,0,VALID,95.5748,VALID,0,VALID,20.8714,VALID,360,VALID,0.0914062,
2011-04-17, 00:33:04,VALID,918.204,VALID,0,VALID,95.5214,VALID,0,VALID,20.891,VALID,360,VALID,0.288281,
2011-04-17, 00:34:04,VALID,918.169,VALID,0,VALID,95.4375,VALID,0,VALID,20.8925,VALID,360,VALID,0.477734,
2011-04-17, 00:35:04,VALID,918.162,VALID,0,VALID,95.3994,VALID,0,VALID,20.8519,VALID,360,VALID,0.505469,
2011-04-17, 00:36:04,VALID,918.167,VALID,0,VALID,95.4071,VALID,0,VALID,20.8519,VALID,360,VALID,0.33125,
2011-04-17, 00:37:04,VALID,918.133,VALID,0,VALID,95.3994,VALID,0,VALID,20.8519,VALID,360,VALID,0.0121094,
2011-04-17, 00:38:04,VALID,918.137,VALID,0,VALID,95.4071,VALID,0,VALID,20.8519,VALID,360,VALID,0.180469,
2011-04-17, 00:39:04,VALID,918.14,VALID,0,VALID,95.3994,VALID,0,VALID,20.8714,VALID,360,VALID,0.158203,
2011-04-17, 00:40:04,VALID,918.139,VALID,0,VALID,95.3842,VALID,0,VALID,20.8714,VALID,360,VALID,0,
2011-04-17, 00:41:04,VALID,918.132,VALID,0,VALID,95.3842,VALID,0,VALID,20.8714,VALID,360,VALID,0,
2011-04-17, 00:42:04,VALID,918.136,VALID,0,VALID,95.4833,VALID,0,VALID,20.891,VALID,360,VALID,0.296484,
2011-04-17, 00:43:04,VALID,918.119,VALID,0,VALID,95.4528,VALID,0.107441,VALID,20.891,VALID,360,VALID,0.298438,
2011-04-17, 00:44:04,VALID,918.129,VALID,0,VALID,95.4071,VALID,0,VALID,20.8714,VALID,360,VALID,0.216406,
2011-04-17, 00:45:04,VALID,918.122,VALID,0,VALID,95.4375,VALID,0,VALID,20.8714,VALID,360,VALID,0.216406,
2011-04-17, 00:46:04,VALID,918.136,VALID,0,VALID,95.4604,VALID,0,VALID,20.8324,VALID,360,VALID,0.1875,
2011-04-17, 00:47:04,VALID,918.106,VALID,0,VALID,95.5062,VALID,0.107441,VALID,20.8714,VALID,360,VALID,0.351953,
2011-04-17, 00:48:04,VALID,918.104,VALID,0,VALID,95.5062,VALID,0,VALID,20.8714,VALID,360,VALID,0.363672,
2011-04-17, 00:49:04,VALID,918.077,VALID,0,VALID,95.5443,VALID,0,VALID,20.891,VALID,360,VALID,0.444531,
2011-04-17, 00:50:04,VALID,918.083,VALID,0,VALID,95.5443,VALID,0.107441,VALID,20.891,VALID,360,VALID,0.489062,
2011-04-17, 00:51:04,VALID,918.081,VALID,0,VALID,95.5519,VALID,0,VALID,20.891,VALID,360,VALID,0.387891,
2011-04-17, 00:52:04,VALID,918.089,VALID,0,VALID,95.5595,VALID,0,VALID,20.93,VALID,360,VALID,0.151562,
2011-04-17, 00:53:04,VALID,918.109,VALID,0,VALID,95.529,VALID,0.107441,VALID,20.891,VALID,360,VALID,0,
2011-04-17, 00:54:04,VALID,918.096,VALID,0,VALID,95.5595,VALID,0,VALID,20.891,VALID,360,VALID,0,
2011-04-17, 00:55:04,VALID,918.118,VALID,0,VALID,95.5519,VALID,0,VALID,20.93,VALID,360,VALID,0.371484,
2011-04-17, 00:56:04,VALID,918.137,VALID,0,VALID,95.529,VALID,0,VALID,20.93,VALID,360,VALID,0,
2011-04-17, 00:57:04,VALID,918.115,VALID,0,VALID,95.5519,VALID,0.107441,VALID,20.9495,VALID,360,VALID,0.333594,
2011-04-17, 00:58:04,VALID,918.121,VALID,0,VALID,95.5824,VALID,0,VALID,20.9885,VALID,360,VALID,0.5375,
2011-04-17, 00:59:04,VALID,918.112,VALID,0,VALID,95.5367,VALID,0.107441,VALID,20.9495,VALID,360,VALID,0.245703,
2011-04-17, 01:00:04,VALID,918.097,VALID,0,VALID,95.5671,VALID,0,VALID,20.969,VALID,360,VALID,0.653516,
2011-04-17, 01:01:04,VALID,918.083,VALID,0,VALID,95.4757,VALID,0,VALID,20.9706,VALID,360,VALID,0.541016,
2011-04-17, 01:02:04,VALID,918.071,VALID,0,VALID,95.529,VALID,0,VALID,20.9495,VALID,360,VALID,0.329297,
2011-04-17, 01:03:04,VALID,918.063,VALID,0,VALID,95.5824,VALID,0,VALID,20.9706,VALID,360,VALID,0.123438,
2011-04-17, 01:04:04,VALID,918.059,VALID,0,VALID,95.5671,VALID,0,VALID,20.9495,VALID,360,VALID,0.144531,
2011-04-17, 01:05:04,VALID,917.995,VALID,0,VALID,95.5367,VALID,0,VALID,20.9495,VALID,360,VALID,0.192969,
2011-04-17, 01:06:04,VALID,917.96,VALID,0,VALID,95.5671,VALID,0,VALID,20.9885,VALID,360,VALID,0.425781,
2011-04-17, 01:07:04,VALID,917.945,VALID,0,VALID,95.5824,VALID,0,VALID,20.9885,VALID,360,VALID,0.429688,
2011-04-17, 01:08:04,VALID,917.936,VALID,0,VALID,95.5138,VALID,0.107441,VALID,21.008,VALID,360,VALID,0.512109,
2011-04-17, 01:09:04,VALID,917.934,VALID,0,VALID,95.4452,VALID,0,VALID,21.0096,VALID,360,VALID,0.641016,
2011-04-17, 01:10:04,VALID,917.927,VALID,0,VALID,95.3308,VALID,0,VALID,20.969,VALID,360,VALID,0.546484,
2011-04-17, 01:11:04,VALID,917.927,VALID,0,VALID,95.2622,VALID,0,VALID,20.9706,VALID,360,VALID,0.488281,
2011-04-17, 01:12:04,VALID,917.94,VALID,0,VALID,95.2241,VALID,0,VALID,20.93,VALID,360,VALID,0.637891,
2011-04-17, 01:13:04,VALID,917.935,VALID,0,VALID,95.2698,VALID,0,VALID,20.93,VALID,360,VALID,0,
2011-04-17, 01:14:04,VALID,917.928,VALID,0,VALID,95.3156,VALID,0,VALID,20.93,VALID,360,VALID,0,
2011-04-17, 01:15:04,VALID,917.911,VALID,0,VALID,95.3308,VALID,0.107441,VALID,20.93,VALID,360,VALID,0.284375,
2011-04-17, 01:16:04,VALID,917.925,VALID,0,VALID,95.3079,VALID,0,VALID,20.9105,VALID,360,VALID,0.482422,
2011-04-17, 01:17:04,VALID,917.883,VALID,0,VALID,95.3384,VALID,0,VALID,20.891,VALID,360,VALID,0.308203,
2011-04-17, 01:18:04,VALID,917.907,VALID,0,VALID,95.4071,VALID,0,VALID,20.9089,VALID,360,VALID,0.114063,
2011-04-17, 01:19:04,VALID,917.868,VALID,0,VALID,95.3842,VALID,0,VALID,20.93,VALID,360,VALID,0.101563,
2011-04-17, 01:20:04,VALID,917.875,VALID,0,VALID,95.4147,VALID,0,VALID,20.93,VALID,360,VALID,0,
2011-04-17, 01:21:04,VALID,917.874,VALID,0,VALID,95.4071,VALID,0,VALID,20.9105,VALID,360,VALID,0,
2011-04-17, 01:22:04,VALID,917.824,VALID,0,VALID,95.4147,VALID,0,VALID,20.93,VALID,360,VALID,0,
2011-04-17, 01:23:04,VALID,917.837,VALID,0,VALID,95.3689,VALID,0,VALID,20.9105,VALID,360,VALID,0,
2011-04-17, 01:24:04,VALID,917.822,VALID,0,VALID,95.3537,VALID,0,VALID,20.9105,VALID,360,VALID,0,
2011-04-17, 01:25:04,VALID,917.821,VALID,0,VALID,95.3918,VALID,0,VALID,20.891,VALID,360,VALID,0.457812,
2011-04-17, 01:26:04,VALID,917.809,VALID,0,VALID,95.3308,VALID,0,VALID,20.8714,VALID,360,VALID,0.529688,
2011-04-17, 01:27:04,VALID,917.809,VALID,0,VALID,95.3308,VALID,0,VALID,20.8519,VALID,360,VALID,0.590234,
2011-04-17, 01:28:04,VALID,917.776,VALID,0,VALID,95.3689,VALID,0,VALID,20.8535,VALID,360,VALID,0.532812,
2011-04-17, 01:29:04,VALID,917.786,VALID,0,VALID,95.4375,VALID,0,VALID,20.8324,VALID,360,VALID,1.03203,
2011-04-17, 01:30:04,VALID,917.768,VALID,0,VALID,95.4528,VALID,0,VALID,20.8129,VALID,360,VALID,0.690625,
2011-04-17, 01:31:04,VALID,917.764,VALID,0,VALID,95.4223,VALID,0,VALID,20.7739,VALID,360,VALID,0.741016,
2011-04-17, 01:32:04,VALID,917.751,VALID,0,VALID,95.4604,VALID,0,VALID,20.7544,VALID,360,VALID,0.582422,
2011-04-17, 01:33:04,VALID,917.719,VALID,0,VALID,95.4528,VALID,0,VALID,20.7544,VALID,360,VALID,0.541016,
2011-04-17, 01:34:04,VALID,917.692,VALID,0,VALID,95.4528,VALID,0,VALID,20.7154,VALID,360,VALID,0.808984,
2011-04-17, 01:35:04,VALID,917.689,VALID,0,VALID,95.4757,VALID,0,VALID,20.6569,VALID,360,VALID,0.685156,
2011-04-17, 01:36:04,VALID,917.701,VALID,0,VALID,95.5671,VALID,0,VALID,20.678,VALID,360,VALID,0.679688,
2011-04-17, 01:37:04,VALID,917.674,VALID,0,VALID,95.6129,VALID,0,VALID,20.678,VALID,360,VALID,0.456641,
2011-04-17, 01:38:04,VALID,917.703,VALID,0,VALID,95.6891,VALID,0,VALID,20.6764,VALID,360,VALID,0.364844,
2011-04-17, 01:39:04,VALID,917.691,VALID,0,VALID,95.7501,VALID,0,VALID,20.6959,VALID,360,VALID,0.498828,
2011-04-17, 01:40:04,VALID,917.67,VALID,0,VALID,95.773,VALID,0,VALID,20.6569,VALID,360,VALID,0.680859,
2011-04-17, 01:41:04,VALID,917.685,VALID,0,VALID,95.7958,VALID,0,VALID,20.6569,VALID,360,VALID,0.377344,
2011-04-17, 01:42:04,VALID,917.682,VALID,0,VALID,95.8797,VALID,0,VALID,20.6975,VALID,360,VALID,0.175781,
2011-04-17, 01:43:04,VALID,917.688,VALID,0,VALID,95.8721,VALID,0,VALID,20.6569,VALID,360,VALID,0.0464844,
2011-04-17, 01:44:04,VALID,917.673,VALID,0,VALID,95.9178,VALID,0,VALID,20.6764,VALID,360,VALID,0.0234375,
2011-04-17, 01:45:04,VALID,917.685,VALID,0,VALID,95.9254,VALID,0,VALID,20.6764,VALID,360,VALID,0.0605469,
2011-04-17, 01:46:04,VALID,917.681,VALID,0,VALID,95.8721,VALID,0,VALID,20.6764,VALID,360,VALID,0.308203,
2011-04-17, 01:47:04,VALID,917.656,VALID,0,VALID,95.8721,VALID,0.107441,VALID,20.6764,VALID,360,VALID,0.000390625,
2011-04-17, 01:48:04,VALID,917.648,VALID,0,VALID,95.8492,VALID,0,VALID,20.6374,VALID,360,VALID,0.640234,
2011-04-17, 01:49:04,VALID,917.647,VALID,0,VALID,95.8492,VALID,0,VALID,20.6374,VALID,360,VALID,0.736719,
2011-04-17, 01:50:04,VALID,917.648,VALID,0,VALID,95.8873,VALID,0,VALID,20.6374,VALID,360,VALID,0.320703,
2011-04-17, 01:51:04,VALID,917.605,VALID,0,VALID,95.9026,VALID,0,VALID,20.6179,VALID,360,VALID,0.361328,
2011-04-17, 01:52:04,VALID,917.588,VALID,0,VALID,95.9331,VALID,0,VALID,20.5984,VALID,360,VALID,0.0785156,
2011-04-17, 01:53:04,VALID,917.575,VALID,0,VALID,95.9559,VALID,0,VALID,20.6194,VALID,360,VALID,0.0109375,
2011-04-17, 01:54:04,VALID,917.571,VALID,0,VALID,95.9636,VALID,0,VALID,20.5984,VALID,359,VALID,0.50625,
2011-04-17, 01:55:04,VALID,917.53,VALID,0,VALID,96.0093,VALID,0,VALID,20.639,VALID,360,VALID,0.305078,
2011-04-17, 01:56:04,VALID,917.494,VALID,0,VALID,96.0093,VALID,0,VALID,20.5999,VALID,360,VALID,0.00585938,
2011-04-17, 01:57:04,VALID,917.466,VALID,0,VALID,96.0245,VALID,0,VALID,20.5578,VALID,360,VALID,0.354297,
2011-04-17, 01:58:04,VALID,917.468,VALID,0,VALID,96.0398,VALID,0,VALID,20.5789,VALID,360,VALID,0.244141,
2011-04-17, 01:59:04,VALID,917.463,VALID,0,VALID,96.055,VALID,0,VALID,20.5804,VALID,360,VALID,0.05625,
2011-04-17, 02:00:04,VALID,917.446,VALID,0,VALID,96.0703,VALID,0,VALID,20.5594,VALID,360,VALID,0,
2011-04-17, 02:01:04,VALID,917.44,VALID,0,VALID,96.116,VALID,0,VALID,20.5594,VALID,360,VALID,0.0769531,
2011-04-17, 02:02:04,VALID,917.429,VALID,0,VALID,96.0932,VALID,0,VALID,20.5399,VALID,360,VALID,0.339063,
2011-04-17, 02:03:04,VALID,917.437,VALID,0,VALID,96.1236,VALID,0,VALID,20.5609,VALID,360,VALID,0.552344,
2011-04-17, 02:04:04,VALID,917.419,VALID,0,VALID,96.0474,VALID,0,VALID,20.5204,VALID,360,VALID,0.610547,
2011-04-17, 02:05:04,VALID,917.434,VALID,0,VALID,96.0703,VALID,0,VALID,20.5024,VALID,360,VALID,0.569922,
2011-04-17, 02:06:04,VALID,917.392,VALID,0,VALID,96.116,VALID,0,VALID,20.4829,VALID,360,VALID,0.510938,
2011-04-17, 02:07:04,VALID,917.339,VALID,0,VALID,96.1541,VALID,0,VALID,20.4634,VALID,360,VALID,0.397266,
2011-04-17, 02:08:04,VALID,917.335,VALID,0,VALID,96.1541,VALID,0,VALID,20.4634,VALID,360,VALID,0.402344,
2011-04-17, 02:09:04,VALID,917.31,VALID,0,VALID,96.1465,VALID,0,VALID,20.4439,VALID,360,VALID,0.452344,
2011-04-17, 02:10:04,VALID,917.304,VALID,0,VALID,96.177,VALID,0,VALID,20.4423,VALID,360,VALID,0.303516,
2011-04-17, 02:11:04,VALID,917.313,VALID,0,VALID,96.2304,VALID,0,VALID,20.4618,VALID,360,VALID,0.301953,
2011-04-17, 02:12:04,VALID,917.328,VALID,0,VALID,96.238,VALID,0,VALID,20.5009,VALID,360,VALID,0.282813,
2011-04-17, 02:13:04,VALID,917.32,VALID,0,VALID,96.3066,VALID,0,VALID,20.5204,VALID,360,VALID,0.102344,
2011-04-17, 02:14:04,VALID,917.334,VALID,0,VALID,96.3066,VALID,0,VALID,20.5414,VALID,360,VALID,0,
2011-04-17, 02:15:04,VALID,917.322,VALID,0,VALID,96.3219,VALID,0,VALID,20.5414,VALID,360,VALID,0,
2011-04-17, 02:16:04,VALID,917.337,VALID,0,VALID,96.3447,VALID,0,VALID,20.5399,VALID,359,VALID,0,
2011-04-17, 02:17:04,VALID,917.355,VALID,0,VALID,96.3676,VALID,0,VALID,20.5609,VALID,360,VALID,0.172266,
2011-04-17, 02:18:04,VALID,917.334,VALID,0,VALID,96.3829,VALID,0,VALID,20.5399,VALID,360,VALID,0.335547,
2011-04-17, 02:19:04,VALID,917.353,VALID,0,VALID,96.3829,VALID,0,VALID,20.5609,VALID,360,VALID,0,
2011-04-17, 02:20:04,VALID,917.315,VALID,0,VALID,96.3905,VALID,0,VALID,20.5399,VALID,360,VALID,0,
2011-04-17, 02:21:04,VALID,917.28,VALID,0,VALID,96.4057,VALID,0,VALID,20.5609,VALID,360,VALID,0,
2011-04-17, 02:22:04,VALID,917.264,VALID,0,VALID,96.4515,VALID,0,VALID,20.5594,VALID,360,VALID,0,
2011-04-17, 02:23:04,VALID,917.226,VALID,0,VALID,96.4667,VALID,0,VALID,20.5984,VALID,360,VALID,0,
2011-04-17, 02:24:04,VALID,917.232,VALID,0,VALID,96.4591,VALID,0,VALID,20.5999,VALID,360,VALID,0,
2011-04-17, 02:25:04,VALID,917.201,VALID,0,VALID,96.4057,VALID,0,VALID,20.5609,VALID,360,VALID,0.453516,
2011-04-17, 02:26:04,VALID,917.182,VALID,0,VALID,96.4515,VALID,0,VALID,20.5609,VALID,360,VALID,0.234375,
2011-04-17, 02:27:04,VALID,917.196,VALID,0,VALID,96.4972,VALID,0,VALID,20.5804,VALID,360,VALID,0.216797,
2011-04-17, 02:28:04,VALID,917.167,VALID,0,VALID,96.4972,VALID,0,VALID,20.5789,VALID,360,VALID,0,
2011-04-17, 02:29:04,VALID,917.121,VALID,0,VALID,96.4972,VALID,0,VALID,20.5999,VALID,359,VALID,0,
2011-04-17, 02:30:04,VALID,917.13,VALID,0,VALID,96.4743,VALID,0,VALID,20.5804,VALID,360,VALID,0.137891,
2011-04-17, 02:31:04,VALID,917.105,VALID,0,VALID,96.4819,VALID,0,VALID,20.5594,VALID,360,VALID,0.289453,
2011-04-17, 02:32:04,VALID,917.108,VALID,0,VALID,96.4972,VALID,0,VALID,20.5594,VALID,360,VALID,0.342578,
2011-04-17, 02:33:04,VALID,917.081,VALID,0,VALID,96.5048,VALID,0,VALID,20.5609,VALID,360,VALID,0.125391,
2011-04-17, 02:34:04,VALID,917.078,VALID,0,VALID,96.5048,VALID,0,VALID,20.5609,VALID,360,VALID,0.0359375,
2011-04-17, 02:35:04,VALID,917.067,VALID,0,VALID,96.5429,VALID,0,VALID,20.5414,VALID,360,VALID,0,
2011-04-17, 02:36:04,VALID,917.05,VALID,0,VALID,96.5277,VALID,0,VALID,20.5414,VALID,360,VALID,0.0691406,
2011-04-17, 02:37:04,VALID,917.075,VALID,0,VALID,96.5429,VALID,0.107441,VALID,20.5399,VALID,360,VALID,0.308203,
2011-04-17, 02:38:04,VALID,917.031,VALID,0,VALID,96.5658,VALID,0.107441,VALID,20.5399,VALID,360,VALID,0.192188,
2011-04-17, 02:39:04,VALID,917.024,VALID,0,VALID,96.5506,VALID,0.107441,VALID,20.5188,VALID,359,VALID,0.324609,
2011-04-17, 02:40:04,VALID,917.037,VALID,0,VALID,96.5658,VALID,0.107441,VALID,20.5188,VALID,360,VALID,0,
2011-04-17, 02:41:04,VALID,917.025,VALID,0,VALID,96.5811,VALID,0.107441,VALID,20.5594,VALID,360,VALID,0.108594,
2011-04-17, 02:42:04,VALID,917.044,VALID,0,VALID,96.5734,VALID,0.107441,VALID,20.5383,VALID,360,VALID,0.00195313,
2011-04-17, 02:43:04,VALID,917.04,VALID,0,VALID,96.5429,VALID,0.107441,VALID,20.5383,VALID,360,VALID,0.219531,
2011-04-17, 02:44:04,VALID,917.05,VALID,0,VALID,96.5353,VALID,0,VALID,20.5578,VALID,360,VALID,0.344531,
2011-04-17, 02:45:04,VALID,917.101,VALID,0,VALID,96.5734,VALID,0,VALID,20.5789,VALID,360,VALID,0,
2011-04-17, 02:46:04,VALID,917.102,VALID,0,VALID,96.5506,VALID,0.107441,VALID,20.5594,VALID,360,VALID,0,
2011-04-17, 02:47:04,VALID,917.11,VALID,0,VALID,96.5353,VALID,0,VALID,20.5383,VALID,360,VALID,0.141406,
2011-04-17, 02:48:04,VALID,917.106,VALID,0,VALID,96.5429,VALID,0.107441,VALID,20.5594,VALID,360,VALID,0,
2011-04-17, 02:49:04,VALID,917.133,VALID,0,VALID,96.5506,VALID,0.107441,VALID,20.5789,VALID,360,VALID,0,
2011-04-17, 02:50:04,VALID,917.148,VALID,0,VALID,96.5506,VALID,0,VALID,20.5984,VALID,360,VALID,0,
2011-04-17, 02:51:04,VALID,917.121,VALID,0,VALID,96.4972,VALID,0.107441,VALID,20.5578,VALID,360,VALID,0.407031,
2011-04-17, 02:52:04,VALID,917.129,VALID,0,VALID,96.4972,VALID,0,VALID,20.5594,VALID,359,VALID,0.325391,
2011-04-17, 02:53:04,VALID,917.08,VALID,0,VALID,96.4667,VALID,0,VALID,20.5804,VALID,359,VALID,0.0929687,
2011-04-17, 02:54:04,VALID,917.121,VALID,0,VALID,96.4743,VALID,0,VALID,20.5789,VALID,359,VALID,0.398438,
2011-04-17, 02:55:04,VALID,917.11,VALID,0,VALID,96.4438,VALID,0,VALID,20.5984,VALID,359,VALID,0,
2011-04-17, 02:56:04,VALID,917.13,VALID,0,VALID,96.4286,VALID,0,VALID,20.6194,VALID,359,VALID,0,
2011-04-17, 02:57:04,VALID,917.178,VALID,0,VALID,96.421,VALID,0,VALID,20.6194,VALID,359,VALID,0.286328,
2011-04-17, 02:58:04,VALID,917.172,VALID,0,VALID,96.421,VALID,0,VALID,20.6179,VALID,359,VALID,0,
2011-04-17, 02:59:04,VALID,917.177,VALID,0,VALID,96.3829,VALID,0,VALID,20.6179,VALID,359,VALID,0,
2011-04-17, 03:00:04,VALID,917.196,VALID,0,VALID,96.3676,VALID,0,VALID,20.6585,VALID,360,VALID,0.141797,
2011-04-17, 03:01:04,VALID,917.185,VALID,0,VALID,96.421,VALID,0,VALID,20.678,INVALID,360,VALID,0.0121094,
2011-04-17, 03:02:04,VALID,917.226,VALID,0,VALID,96.3066,VALID,0,VALID,20.6569,VALID,359,VALID,0.0769531,
2011-04-17, 03:03:04,VALID,917.26,VALID,0,VALID,96.3219,VALID,0,VALID,20.678,VALID,359,VALID,0.310547,
2011-04-17, 03:04:04,VALID,917.246,VALID,0,VALID,96.2761,VALID,0,VALID,20.6585,VALID,360,VALID,0.469531,
2011-04-17, 03:05:04,VALID,917.241,VALID,0,VALID,96.3066,VALID,0,VALID,20.678,INVALID,360,VALID,0.0128906,
2011-04-17, 03:06:04,VALID,917.242,VALID,0,VALID,96.3219,VALID,0,VALID,20.6975,VALID,359,VALID,0,
2011-04-17, 03:07:04,VALID,917.242,VALID,0,VALID,96.3066,VALID,0,VALID,20.717,VALID,359,VALID,0.000390625,
2011-04-17, 03:08:04,VALID,917.252,VALID,0,VALID,96.3142,VALID,0,VALID,20.717,VALID,359,VALID,0.33125,
2011-04-17, 03:09:04,VALID,917.252,VALID,0,VALID,96.299,VALID,0,VALID,20.717,VALID,359,VALID,0.509375,
2011-04-17, 03:10:04,VALID,917.231,VALID,0,VALID,96.3829,VALID,0,VALID,20.7755,VALID,359,VALID,0.469922,
2011-04-17, 03:11:04,VALID,917.273,VALID,0,VALID,96.299,VALID,0,VALID,20.7755,VALID,359,VALID,0.522656,
2011-04-17, 03:12:04,VALID,917.276,VALID,0,VALID,96.2609,VALID,0,VALID,20.7755,VALID,359,VALID,0.392969,
2011-04-17, 03:13:04,VALID,917.279,VALID,0,VALID,96.2304,VALID,0,VALID,20.7365,VALID,359,VALID,0.287109,
2011-04-17, 03:14:04,VALID,917.274,VALID,0,VALID,96.3219,VALID,0,VALID,20.756,VALID,360,VALID,0.427734,
2011-04-17, 03:15:04,VALID,917.27,VALID,0,VALID,96.3219,VALID,0,VALID,20.7755,VALID,359,VALID,0.490234,
2011-04-17, 03:16:04,VALID,917.274,VALID,0,VALID,96.2609,VALID,0,VALID,20.756,VALID,359,VALID,0.344531,
2011-04-17, 03:17:04,VALID,917.287,VALID,0,VALID,96.1465,VALID,0,VALID,20.6764,VALID,359,VALID,0.328125,
2011-04-17, 03:18:04,VALID,917.292,VALID,0,VALID,96.1084,VALID,0,VALID,20.6585,VALID,359,VALID,0.350391,
2011-04-17, 03:19:04,VALID,917.273,VALID,0,VALID,96.116,VALID,0,VALID,20.639,VALID,359,VALID,0.148828,
2011-04-17, 03:20:04,VALID,917.271,VALID,0,VALID,96.2075,VALID,0,VALID,20.6569,VALID,359,VALID,0.283984,
2011-04-17, 03:21:04,VALID,917.231,VALID,0,VALID,96.1923,VALID,0,VALID,20.6585,VALID,359,VALID,0.0207031,
2011-04-17, 03:22:04,VALID,917.267,VALID,0,VALID,96.2075,VALID,0,VALID,20.6585,VALID,359,VALID,0,
2011-04-17, 03:23:04,VALID,917.257,VALID,0,VALID,96.2533,VALID,0,VALID,20.678,VALID,359,VALID,0,
2011-04-17, 03:24:04,VALID,917.247,VALID,0,VALID,96.2304,VALID,0,VALID,20.6975,VALID,359,VALID,0.419141,
2011-04-17, 03:25:04,VALID,917.283,VALID,0,VALID,96.2761,VALID,0,VALID,20.6959,VALID,359,VALID,0.409766,
2011-04-17, 03:26:04,VALID,917.265,VALID,0,VALID,96.2228,VALID,0,VALID,20.717,VALID,359,VALID,0.449219,
2011-04-17, 03:27:04,VALID,917.279,VALID,0,VALID,96.1541,VALID,0,VALID,20.6975,VALID,359,VALID,0.641406,
2011-04-17, 03:28:04,VALID,917.225,VALID,0,VALID,96.1236,VALID,0,VALID,20.678,VALID,359,VALID,0.882813,
2011-04-17, 03:29:04,VALID,917.215,VALID,0,VALID,96.2228,VALID,0,VALID,20.6975,VALID,359,VALID,0.922266,
2011-04-17, 03:30:04,VALID,917.194,VALID,0,VALID,96.2151,VALID,0,VALID,20.6975,VALID,359,VALID,0.933594,
2011-04-17, 03:31:04,VALID,917.214,VALID,0,VALID,96.1313,VALID,0,VALID,20.678,VALID,359,VALID,0.769922,
2011-04-17, 03:32:04,VALID,917.189,VALID,0,VALID,96.1008,VALID,0,VALID,20.639,VALID,359,VALID,0.632031,
2011-04-17, 03:33:04,VALID,917.169,VALID,0,VALID,96.1389,VALID,0,VALID,20.5999,VALID,359,VALID,0.4,
2011-04-17, 03:34:04,VALID,917.196,VALID,0,VALID,96.1313,VALID,0,VALID,20.5999,VALID,359,VALID,0.450391,
2011-04-17, 03:35:04,VALID,917.185,VALID,0,VALID,96.177,VALID,0,VALID,20.5804,VALID,359,VALID,0.178125,
2011-04-17, 03:36:04,VALID,917.174,VALID,0,VALID,96.2228,VALID,0,VALID,20.5804,VALID,359,VALID,0.238672,
2011-04-17, 03:37:04,VALID,917.176,VALID,0,VALID,96.2075,VALID,0,VALID,20.5804,VALID,359,VALID,0.347656,
2011-04-17, 03:38:04,VALID,917.14,VALID,0,VALID,96.2837,VALID,0,VALID,20.5999,VALID,359,VALID,0.392188,
2011-04-17, 03:39:04,VALID,917.159,VALID,0,VALID,96.2837,VALID,0,VALID,20.5789,VALID,359,VALID,0.179688,
2011-04-17, 03:40:04,VALID,917.121,VALID,0,VALID,96.3066,VALID,0,VALID,20.6194,VALID,359,VALID,0.245703,
2011-04-17, 03:41:04,VALID,917.169,VALID,0,VALID,96.3295,VALID,0,VALID,20.6179,VALID,359,VALID,0,
2011-04-17, 03:42:04,VALID,917.124,VALID,0,VALID,96.2914,VALID,0,VALID,20.6194,VALID,359,VALID,0,
2011-04-17, 03:43:04,VALID,917.116,VALID,0,VALID,96.3219,VALID,0,VALID,20.6194,VALID,359,VALID,0.0976563,
2011-04-17, 03:44:04,VALID,917.041,VALID,0,VALID,96.3829,VALID,0,VALID,20.639,VALID,359,VALID,0.542969,
2011-04-17, 03:45:04,VALID,917.034,VALID,0,VALID,96.3371,VALID,0,VALID,20.6585,VALID,359,VALID,0.735937,